Arden, NC

6:41 AM EST on December 03, 2016 (GMT -0500)
Asheville Regional

Weather History for KAVL - May, 2009

Change the Weather History Date:

Friday, May 15, 2009

  Actual Average Record
Temperature  
Mean Temperature 68 °F 63 °F  
Max Temperature 76 °F 75 °F 88 °F (1933)
Min Temperature 60 °F 51 °F 34 °F (1910)
Degree Days  
Heating Degree Days 0 4  
Month to date heating degree days 30 72  
Since 1 July heating degree days 4167 4144  
Cooling Degree Days 3 1  
Month to date cooling degree days 18 14  
Year to date cooling degree days 22 22  
Growing Degree Days 18 (Base 50)    
Moisture  
Dew Point 61 °F    
Average Humidity 82    
Maximum Humidity 100    
Minimum Humidity 64    
Precipitation  
Precipitation 0.37 in 0.12 in 1.74 in (2014)
Month to date precipitation 5.51 1.71  
Year to date precipitation 17.39 16.30  
Snow  
Snow 0.00 in 0.00 in 0.00 in ()
Month to date snowfall 0.0 0.0  
Since 1 July snowfall 6.1 9.9  
Snow Depth 0.00 in    
Sea Level Pressure  
Sea Level Pressure 30.22 in    
Wind  
Wind Speed 2 mph (SE)    
Max Wind Speed 12 mph    
Max Gust Speed 16 mph    
Visibility 7 miles    
Events Rain , Thunderstorm    
T = Trace of Precipitation, MM = Missing Value Source: NWS Daily Summary

Daily Weather History Graph

Daily Weather History Graph

Search for Another Location

Airport or City:

Trip Planner

Search our weather history database for the weather conditions in past years. The results will help you decide how hot, cold, wet, or windy it might be!

Date:

Astronomy

May. 15, 2009 Rise Set
Actual Time 6:25 AM EDT 8:27 PM EDT
Civil Twilight 5:57 AM EDT 8:56 PM EDT
Nautical Twilight 5:22 AM EDT 9:30 PM EDT
Astronomical Twilight 4:45 AM EDT 10:08 PM EDT
Moon 1:12 AM EDT (5/15) 11:36 AM EDT (5/15)
Length of Visible Light 14h 59m
Length of Day
14h 02m
Waning Gibbous, 65% of the Moon is Illuminated
May 15
Waning Gibbous
May 17
Last Quarter
May 24
New
May 30
First Quarter
Jun 7
Full

Hourly Weather History & Observations

Time (EDT) Temp. Dew Point Humidity Pressure Visibility Wind Dir Wind Speed Gust Speed Precip Events Conditions
12:46 AM 60.8 °F 60.8 °F 100% 30.28 in 4.0 mi North 3.5 mph - 0.10 in Rain , Thunderstorm Thunderstorms and Rain
12:54 AM 62.1 °F 60.1 °F 93% 30.22 in 3.0 mi North 5.8 mph - 0.13 in Rain , Thunderstorm Heavy Thunderstorms and Rain
1:02 AM 60.8 °F 60.8 °F 100% 30.28 in 2.5 mi NE 3.5 mph - 0.08 in Rain , Thunderstorm Heavy Thunderstorms and Rain
1:07 AM 62.6 °F 60.8 °F 94% 30.28 in 4.0 mi Calm Calm - 0.10 in Rain Rain
1:09 AM 60.8 °F 60.8 °F 100% 30.28 in 5.0 mi Calm Calm - 0.10 in Rain , Thunderstorm Light Rain
1:21 AM 60.8 °F 60.8 °F 100% 30.28 in 1.8 mi Calm Calm - 0.14 in Rain , Thunderstorm Heavy Thunderstorms and Rain
1:34 AM 60.8 °F 60.8 °F 100% 30.28 in 3.0 mi North 5.8 mph - 0.40 in Rain , Thunderstorm Light Thunderstorms and Rain
1:41 AM 60.8 °F 60.8 °F 100% 30.28 in 10.0 mi NNW 5.8 mph - 0.40 in Rain , Thunderstorm Light Rain
1:54 AM 61.0 °F 60.1 °F 97% 30.21 in 10.0 mi Calm Calm - 0.40 in Rain , Thunderstorm Light Rain
2:04 AM 60.8 °F 60.8 °F 100% 30.27 in 10.0 mi Calm Calm - 0.00 in Rain Light Rain
2:35 AM 60.8 °F 60.8 °F 100% 30.26 in 10.0 mi NNW 4.6 mph - 0.01 in   Overcast
2:54 AM 61.0 °F 60.1 °F 97% 30.19 in 10.0 mi Calm Calm - 0.01 in   Mostly Cloudy
3:02 AM 60.8 °F 60.8 °F 100% 30.25 in 10.0 mi Calm Calm - N/A   Partly Cloudy
3:54 AM 62.1 °F 61.0 °F 96% 30.17 in 10.0 mi North 5.8 mph - N/A   Clear
4:54 AM 60.1 °F 60.1 °F 100% 30.19 in 4.0 mi Calm Calm - N/A   Partly Cloudy
5:24 AM 60.8 °F 60.8 °F 100% 30.25 in 4.0 mi Calm Calm - N/A   Mostly Cloudy
5:29 AM 60.8 °F 60.8 °F 100% 30.25 in 2.5 mi Calm Calm - N/A   Mostly Cloudy
5:34 AM 60.8 °F 60.8 °F 100% 30.25 in 1.2 mi Calm Calm - N/A   Mostly Cloudy
5:42 AM 60.8 °F 60.8 °F 100% 30.25 in 2.0 mi Calm Calm - N/A   Mostly Cloudy
5:51 AM 60.8 °F 60.8 °F 100% 30.25 in 6.0 mi Calm Calm - N/A   Mostly Cloudy
5:54 AM 60.1 °F 60.1 °F 100% 30.19 in 6.0 mi Calm Calm - N/A   Mostly Cloudy
6:38 AM 60.8 °F 60.8 °F 100% 30.26 in 2.0 mi Calm Calm - N/A   Overcast
6:54 AM 61.0 °F 60.1 °F 97% 30.20 in 2.0 mi Calm Calm - N/A   Overcast
7:01 AM 60.8 °F 60.8 °F 100% 30.26 in 5.0 mi Calm Calm - N/A   Overcast
7:21 AM 60.8 °F 60.8 °F 100% 30.27 in 2.0 mi Calm Calm - N/A   Overcast
7:54 AM 62.1 °F 61.0 °F 96% 30.22 in 2.0 mi Calm Calm - N/A   Overcast
8:24 AM 62.6 °F 60.8 °F 94% 30.27 in 2.0 mi Calm Calm - N/A   Overcast
8:54 AM 63.0 °F 61.0 °F 93% 30.22 in 4.0 mi Calm Calm - N/A   Mostly Cloudy
9:54 AM 63.0 °F 62.1 °F 97% 30.22 in 3.0 mi Calm Calm - N/A   Mostly Cloudy
10:54 AM 68.0 °F 63.0 °F 84% 30.22 in 7.0 mi Calm Calm - N/A   Mostly Cloudy
11:54 AM 72.0 °F 64.0 °F 76% 30.22 in 10.0 mi Variable 3.5 mph - N/A   Mostly Cloudy
12:01 PM 71.6 °F 64.4 °F 78% 30.28 in 10.0 mi ESE 4.6 mph - N/A   Mostly Cloudy
12:50 PM 73.4 °F 62.6 °F 69% 30.26 in 10.0 mi SE 5.8 mph - N/A   Mostly Cloudy
12:54 PM 72.0 °F 62.1 °F 71% 30.20 in 10.0 mi ESE 6.9 mph - N/A   Overcast
1:41 PM 73.4 °F 62.6 °F 69% 30.25 in 10.0 mi Variable 5.8 mph - N/A   Overcast
1:54 PM 75.0 °F 63.0 °F 66% 30.18 in 10.0 mi SSE 8.1 mph - N/A   Mostly Cloudy
2:54 PM 73.9 °F 63.0 °F 68% 30.16 in 10.0 mi SE 5.8 mph - N/A   Scattered Clouds
3:54 PM 73.9 °F 62.1 °F 66% 30.13 in 10.0 mi SSE 6.9 mph - N/A   Scattered Clouds
4:00 PM 73.4 °F 62.6 °F 69% 30.19 in 10.0 mi SSE 8.1 mph - N/A Thunderstorm Thunderstorm
4:54 PM 66.9 °F 60.1 °F 79% 30.14 in 10.0 mi SW 6.9 mph - 0.00 in Rain , Thunderstorm Light Thunderstorms and Rain
5:03 PM 64.4 °F 57.2 °F 77% 30.18 in 10.0 mi SW 4.6 mph - 0.00 in Rain Light Rain
5:35 PM 64.4 °F 60.8 °F 88% 30.19 in 8.0 mi SW 3.5 mph - 0.01 in Rain Light Rain
5:49 PM 64.4 °F 60.8 °F 88% 30.19 in 10.0 mi Calm Calm - 0.01 in Rain Light Rain
5:54 PM 64.9 °F 60.1 °F 84% 30.14 in 10.0 mi Calm Calm - 0.01 in Rain Light Rain
6:54 PM 64.0 °F 60.1 °F 87% 30.16 in 10.0 mi Calm Calm - 0.00 in Rain Light Rain
7:54 PM 63.0 °F 60.1 °F 90% 30.15 in 10.0 mi SE 3.5 mph - 0.01 in   Scattered Clouds
8:54 PM 63.0 °F 61.0 °F 93% 30.16 in 10.0 mi Calm Calm - N/A   Clear
9:54 PM 62.1 °F 60.1 °F 93% 30.17 in 10.0 mi SSE 3.5 mph - N/A   Scattered Clouds
10:54 PM 62.1 °F 60.1 °F 93% 30.17 in 10.0 mi Calm Calm - N/A   Mostly Cloudy
11:54 PM 61.0 °F 59.0 °F 93% 30.14 in 10.0 mi SE 3.5 mph - N/A   Partly Cloudy